Location: Fasanenhof
(48.7107°N, 9.1590°E)
Time: 02:36:58
(UTC+00:00)

ISS - Visible Passes

Search period start: 27 February 2024 00:00
Search period end: 08 March 2024 00:00
Orbit: 414 x 422 km, 51.6° (Epoch: 26 February)

Date Brightness Start Highest point End Pass type
(mag) Time Alt. Az. Time Alt. Az. Time Alt. Az.
27 Feb -1.6 03:34:09 27° ENE 03:34:09 27° ENE 03:35:54 10° ENE visible
27 Feb -3.2 05:07:05 16° WNW 05:09:35 52° N 05:12:55 10° E visible
28 Feb -3.2 04:21:03 43° NW 04:21:40 49° N 04:24:58 10° ENE visible
29 Feb -1.9 03:34:59 30° NE 03:34:59 30° NE 03:36:59 10° ENE visible
29 Feb -3.6 05:07:55 14° WNW 05:10:44 70° NNE 05:14:06 10° E visible
01 Mar -0.2 02:48:54 11° ENE 02:48:54 11° ENE 02:49:00 10° ENE visible
01 Mar -3.4 04:21:49 40° NW 04:22:44 58° N 04:26:05 10° E visible
02 Mar -2.2 03:35:43 35° ENE 03:35:43 35° ENE 03:38:00 10° E visible
02 Mar -3.7 05:08:39 13° WNW 05:11:33 68° SSW 05:14:55 10° ESE visible
03 Mar -0.3 02:49:37 12° ENE 02:49:37 12° ENE 02:49:52 10° ENE visible
03 Mar -3.8 04:22:33 43° WNW 04:23:32 88° NNE 04:26:56 10° ESE visible
04 Mar -2.5 03:36:28 40° E 03:36:28 40° E 03:38:48 10° E visible
04 Mar -2.8 05:09:24 13° W 05:12:04 32° SW 05:15:07 10° SSE visible
05 Mar -0.4 02:50:26 11° E 02:50:26 11° E 02:50:36 10° E visible
05 Mar -3.5 04:23:22 41° WSW 04:24:02 48° SSW 04:27:18 10° SE visible
06 Mar -2.2 03:37:24 30° SE 03:37:24 30° SE 03:39:16 10° ESE visible
06 Mar -1.8 05:10:20 11° WSW 05:12:12 15° SW 05:14:13 10° S visible
07 Mar -2.3 04:24:27 22° SSW 04:24:27 22° SSW 04:26:52 10° SSE visible
